Barrow, AK

7:36 AM AKDT on September 19, 2017 (GMT -0800)
Wiley Post-Will Rogers Memorial

Weather History for PABR - May, 2013

Change the Weather History Date:

Wednesday, May 1, 2013

  Actual Average Record
Temperature  
Mean Temperature 10 °F 12 °F  
Max Temperature 18 °F 18 °F 37 °F (2014)
Min Temperature 2 °F 6 °F -17 °F (1922)
Degree Days  
Heating Degree Days 55 53  
Month to date heating degree days 55 53  
Since 1 July heating degree days 16190 17213  
Cooling Degree Days 0 0  
Month to date cooling degree days 0 0  
Year to date cooling degree days 0 0  
Moisture  
Dew Point 6 °F    
Average Humidity 0    
Maximum Humidity 85    
Minimum Humidity 68    
Precipitation  
Precipitation 0.02 in 0.00 in 0.07 in (1970)
Month to date precipitation 0.02 0.00  
Year to date precipitation 0.84 0.52  
Snow  
Snow 0.40 in 0.10 in 0.90 in (1994)
Month to date snowfall 0.4 0.1  
Since 1 July snowfall 57.5 34.4  
Snow Depth 6.00 in    
Sea Level Pressure  
Sea Level Pressure 30.23 in    
Wind  
Wind Speed 12 mph (NNW)    
Max Wind Speed 16 mph    
Max Gust Speed 20 mph    
Visibility 6 miles    
Events Snow    
T = Trace of Precipitation, MM = Missing Value Source: NWS Daily Summary

Daily Weather History Graph

Daily Weather History Graph

Search for Another Location

Airport or City:

Trip Planner

Search our weather history database for the weather conditions in past years. The results will help you decide how hot, cold, wet, or windy it might be!

Date:

Astronomy

May. 01, 2013 Rise Set
Actual Time 4:31 AM AKDT 12:23 AM AKDT
Civil Twilight Sun does not set Sun does not set
Nautical Twilight Sun does not set Sun does not set
Astronomical Twilight Sun does not set Sun does not set
Moon 5:29 AM AKDT (5/1) 10:37 AM AKDT (5/1)
Length of Visible Light 24h 00m
Length of Day
19h 51m
Waning Gibbous, 57% of the Moon is Illuminated
May 1
Waning Gibbous
May 2
Last Quarter
May 9
New
May 17
First Quarter
May 24
Full

Hourly Weather History & Observations

Time (AKDT) Temp. Windchill Dew Point Humidity Pressure Visibility Wind Dir Wind Speed Gust Speed Precip Events Conditions
12:53 AM 3.0 °F -10.5 °F -2.9 °F 76% 30.45 in 10.0 mi NW 8.1 mph - N/A   Overcast
1:53 AM 3.0 °F -12.5 °F -2.9 °F 76% 30.42 in 7.0 mi WNW 10.4 mph - N/A   Overcast
2:53 AM 3.0 °F -14.1 °F -2.9 °F 76% 30.39 in 7.0 mi WNW 12.7 mph - 0.00 in Snow Light Snow
3:53 AM 3.0 °F -14.1 °F -2.9 °F 76% 30.36 in 4.0 mi West 12.7 mph - 0.01 in Snow Light Snow
4:53 AM 3.0 °F -14.8 °F -2.0 °F 80% 30.33 in 7.0 mi West 13.8 mph - 0.00 in Snow Light Snow
5:38 AM 3.2 °F -15.3 °F -0.4 °F 85% 30.29 in 2.0 mi West 15.0 mph - 0.00 in Snow Light Snow
5:46 AM 5.0 °F -12.3 °F -0.4 °F 78% 30.29 in 2.0 mi West 13.8 mph - 0.00 in Snow Light Snow
5:53 AM 5.0 °F -12.3 °F -0.9 °F 76% 30.29 in 2.0 mi West 13.8 mph - 0.00 in Snow Light Snow
6:00 AM 5.0 °F -12.3 °F -0.4 °F 78% 30.28 in 1.2 mi WNW 13.8 mph - 0.00 in Snow Light Snow
6:51 AM 6.8 °F -10.7 °F 1.4 °F 79% 30.26 in 3.0 mi WNW 15.0 mph - 0.01 in Snow Light Snow
6:53 AM 6.1 °F -11.6 °F 1.0 °F 80% 30.27 in 3.0 mi WNW 15.0 mph - 0.01 in Snow Light Snow
7:53 AM 7.0 °F -9.1 °F 1.0 °F 77% 30.24 in 8.0 mi WNW 12.7 mph - 0.00 in   Mostly Cloudy
8:53 AM 9.0 °F -5.9 °F 3.0 °F 77% 30.22 in 7.0 mi WNW 11.5 mph - 0.00 in Snow Light Snow
9:53 AM 10.9 °F -2.6 °F 6.1 °F 81% 30.21 in 7.0 mi NW 10.4 mph - 0.00 in Snow Light Snow
9:59 AM 12.2 °F -1.0 °F 6.8 °F 79% 30.20 in 7.0 mi NW 10.4 mph - 0.00 in Snow Light Snow
10:53 AM 12.9 °F -0.9 °F 8.1 °F 81% 30.20 in 7.0 mi NNW 11.5 mph - 0.00 in Snow Light Snow
11:53 AM 15.1 °F 0.5 °F 9.0 °F 77% 30.20 in 5.0 mi North 13.8 mph - 0.00 in Snow Light Snow
12:21 PM 15.8 °F 1.4 °F 8.6 °F 73% 30.20 in 2.5 mi North 13.8 mph - 0.00 in Snow Light Snow
12:42 PM 15.8 °F 2.1 °F 8.6 °F 73% 30.19 in 4.0 mi North 12.7 mph - 0.00 in Snow Light Snow
12:49 PM 17.6 °F 4.3 °F 8.6 °F 68% 30.20 in 7.0 mi North 12.7 mph - 0.00 in Snow Light Snow
12:53 PM 16.0 °F 1.7 °F 9.0 °F 74% 30.20 in 5.0 mi North 13.8 mph - 0.00 in Snow Light Snow
1:53 PM 17.1 °F 2.0 °F 9.0 °F 71% 30.19 in 9.0 mi North 16.1 mph - 0.00 in Snow Light Snow
2:53 PM 17.1 °F 4.3 °F 9.0 °F 71% 30.19 in 9.0 mi North 11.5 mph - 0.00 in   Overcast
3:53 PM 17.1 °F 3.6 °F 10.0 °F 74% 30.19 in 8.0 mi NNE 12.7 mph - N/A   Mostly Cloudy
4:53 PM 17.1 °F 3.6 °F 10.0 °F 74% 30.19 in 6.0 mi North 12.7 mph - 0.00 in Snow Light Snow
5:53 PM 17.1 °F 5.8 °F 10.0 °F 74% 30.18 in 6.0 mi North 9.2 mph - 0.00 in Snow Light Snow
6:53 PM 17.1 °F 5.0 °F 10.0 °F 74% 30.19 in 6.0 mi North 10.4 mph - 0.00 in Snow Light Snow
7:53 PM 17.1 °F 5.8 °F 10.0 °F 74% 30.18 in 6.0 mi North 9.2 mph - 0.00 in Snow Light Snow
8:53 PM 16.0 °F 7.4 °F 10.0 °F 77% 30.18 in 6.0 mi North 5.8 mph - 0.00 in Snow Light Snow
9:30 PM 15.8 °F 7.2 °F 10.4 °F 79% 30.17 in 6.0 mi NNW 5.8 mph - 0.00 in Snow Light Snow
9:45 PM 15.8 °F 8.6 °F 10.4 °F 79% 30.17 in 6.0 mi NNW 4.6 mph - 0.00 in Snow Light Snow
9:53 PM 16.0 °F 8.8 °F 10.9 °F 81% 30.17 in 6.0 mi NNW 4.6 mph - 0.00 in Snow Light Snow
10:20 PM 15.8 °F 3.4 °F 10.4 °F 79% 30.17 in 6.0 mi NNW 10.4 mph - 0.00 in Snow Light Snow
10:45 PM 15.8 °F 3.4 °F 10.4 °F 79% 30.17 in 6.0 mi NNW 10.4 mph - 0.00 in Snow Light Snow
10:53 PM 16.0 °F 2.9 °F 10.9 °F 81% 30.17 in 6.0 mi NNW 11.5 mph - 0.00 in Snow Light Snow
11:08 PM 15.8 °F 3.4 °F 10.4 °F 79% 30.17 in 4.0 mi NNW 10.4 mph - 0.00 in Snow Light Snow
11:53 PM 15.1 °F 4.2 °F 10.0 °F 80% 30.18 in 6.0 mi North 8.1 mph - 0.00 in Snow Light Snow